Location: Maccacari
(45.1333°N, 11.1333°E)
Time: 06:54:01
(UTC+00:00)

Altair - Pass Details

Date: 27 January 2021
Orbit: 1501 x 1682 km, 47.2° (Epoch: 28 February)

Event Time Altitude Azimuth Distance (km) Brightness Sun altitude
Rises 01:42:30 0° 193° (SSW) 4,796 - -51.4°
Reaches altitude 10° 01:46:13 10° 182° (S) 3,842 - -50.9°
Maximum altitude 01:53:54 27° 130° (SE) 2,801 - -49.7°
Exits shadow 01:55:13 26° 118° (ESE) 2,847 9.0 -49.5°
Drops below altitude 10° 02:01:43 10° 78° (ENE) 3,938 10.1 -48.5°
Sets 02:05:33 0° 67° (ENE) 4,938 10.9 -47.9°
